Regional Weather Roundup
Issued by NWS

Home | Current Version | Previous Version | Graphics & Text | Print | Product List | Glossary On
Versions: 1 2 3 4 5 6 7 8 9 10 11 12 13 14 15 16 17 18 19 20 21 22 23 24 25 26 27 28 29 30 31 32 33 34 35 36 37 38 39 40 41 42 43 44 45 46 47 48 49 50
000
ASUS43 KFSD 121202
RWRSD

WEATHER ROUNDUP FOR SOUTH DAKOTA
NATIONAL WEATHER SERVICE SIOUX FALLS SD
700 AM CDT SAT JUL 12 2014

NOTE: "FAIR" INDICATES FEW OR NO CLOUDS BELOW 12,000 FEET WITH NO
SIGNIFICANT WEATHER AND/OR OBSTRUCTIONS TO VISIBILITY.


SDZ001>005-009-010-012>017-121300-
NORTHWEST AND NORTH CENTRAL SOUTH DAKOTA

CITY           SKY/WX    TMP DP  RH WIND       PRES   REMARKS
BUFFALO          N/A     60  58  92 SE7       30.09S
FAITH            N/A     62  60  93 E14       30.14S
MOBRIDGE       LGT RAIN  64  62  93 SW3       30.11R
$$

SDZ012>016-024>037-041>051-057-063-072>074-121300-
SOUTHWEST AND SOUTH CENTRAL SOUTH DAKOTA

CITY           SKY/WX    TMP DP  RH WIND       PRES   REMARKS
RAPID CTY ARPT PTCLDY    61  57  87 N8        30.14R
PIERRE         LGT RAIN  63  60  90 N23G30    30.04F
CUSTER         PTCLDY    54  51  90 CALM      30.25R
ELLSWORTH AFB  MOCLDY    62  58  88 NE6       30.15R
PHILIP         MOCLDY    65  61  87 NE12      30.09R
PINE RIDGE     CLOUDY    60  59  96 CALM      30.13R
WINNER         CLOUDY    69  66  90 W7        30.04R
$$

SDZ004>011-016>023-039-040-121300-
NORTHEAST SOUTH DAKOTA

CITY           SKY/WX    TMP DP  RH WIND       PRES   REMARKS
ABERDEEN       CLOUDY    64  58  80 NE5       30.04S
WATERTOWN      CLOUDY    68  55  63 VRB5      30.03R
SISSETON         N/A     65  60  84 N6        30.03R
$$

SDZ017-020-022-023-036>040-048>070-121300-
SOUTHEAST SOUTH DAKOTA

CITY           SKY/WX    TMP DP  RH WIND       PRES   REMARKS
SIOUX FALLS    LGT RAIN  71  67  87 N6        29.99F
HURON          LGT RAIN  66  50  57 S7        30.03F
CHAMBERLAIN    MOCLDY    69  66  92 NE5       30.04R
MITCHELL       CLOUDY    72  68  87 NW6       30.03R
YANKTON        CLOUDY    68  64  88 SE13      29.96F
$$

ABBREVIATIONS USED IN REMARKS
   TC - TEMPERATURE IN CELSIUS
  WCI - WIND CHILL INDEX
   HX - HEAT INDEX
  VSB - VISIBILITY




USA.gov is the U.S. government's official web portal to all federal, state and local government web resources and services.